Hourly Data Report for May 22, 2022

KELOWNA UBCO
BRITISH COLUMBIA
Current Station Operator: ECCC - MSC

49°56'26.700" N
119°24'00.760" W
456.00 m
1123996
71644
VKU

Download Data

Hourly Data (May 2022)
Hourly Data Report for May 22, 2022
TIME
LST
Temp Definition
°C
Dew Point Definition
°C
Rel Hum Definition
%
Precip. Amount Definition
mm

Wind Dir Definition
10's deg

Wind Spd Definition
km/h
Visibility Definition
km
Stn Press Definition
kPa
Hmdx Definition


Wind Chill Definition


Weather Definition


00:00 7.5 3.5 76 0.0       96.99     LegendNANA
01:00 7.0 2.5 73 0.0       96.99     LegendNANA
02:00 6.2 1.9 74 0.0       97.03     LegendNANA
03:00 4.8 2.2 84 0.0       97.02     LegendNANA
04:00 3.9 1.8 86 0.0       97.05     LegendNANA
05:00 3.7 2.0 89 0.0       97.04     LegendNANA
06:00 7.0 1.4 67 0.0       97.06     LegendNANA
07:00 8.7 2.9 67 0.0       97.07     LegendNANA
08:00 10.8 2.3 56 0.0       97.03     LegendNANA
09:00 13.2 3.2 51 0.0       96.98     LegendNANA
10:00 15.1 2.2 42 0.0       96.91     LegendNANA
11:00 17.1 1.2 34 0.0       96.87     LegendNANA
12:00 19.0 2.4 33 0.0       96.80     LegendNANA
13:00 19.7 -2.8 22 0.0       96.72     LegendNANA
14:00 20.6 -1.8 22 0.0       96.66     LegendNANA
15:00 20.6 -2.8 21 0.0       96.58     LegendNANA
16:00 21.5 -3.1 19 0.0       96.52     LegendNANA
17:00 21.3 -3.0 19 0.0       96.46     LegendNANA
18:00 20.7 -1.3 23 0.0       96.41     LegendNANA
19:00 17.2 2.1 36 0.0       96.39     LegendNANA
20:00 17.3 0.5 32 0.0       96.44     LegendNANA
21:00 15.2 1.8 40 0.0       96.48     LegendNANA
22:00 13.0 2.9 50 0.0       96.51     LegendNANA
23:00 11.5 2.0 52 0.0       96.54     LegendNANA

Notes on Data Quality.

Legend

  • E = Estimated
  • M = Missing
  • NA = Not Available*
  • [empty] = Indicates an unobserved value
Date modified: